This is the latest recevied weather packets stored in our database for station/object KA2FNK. If no packets are shown the sender has not sent any weather packets the latest 10 day(s).
| Time | Temp. | Humidity | Pressure | Rain* | Wind** | Luminosity | Snow |
|---|---|---|---|---|---|---|---|
| 1778099382 | 14.44° C | 38% | 1017.8 hPa | 0 mm | - | - | - |
| 1778099082 | 13.89° C | 40% | 1018 hPa | 0 mm | - | - | - |
| 1778098781 | 13.89° C | 36% | 1018 hPa | 0 mm | - | - | - |
| 1778098480 | 13.89° C | 40% | 1018.1 hPa | 0 mm | - | - | - |
| 1778098179 | 13.89° C | 39% | 1018.1 hPa | 0 mm | - | - | - |
| 1778097878 | 13.89° C | 41% | 1018.2 hPa | 0 mm | - | - | - |
| 1778097577 | 13.89° C | 38% | 1018.2 hPa | 0 mm | - | - | - |
| 1778097276 | 13.89° C | 39% | 1018.3 hPa | 0 mm | - | - | - |
| 1778096975 | 13.33° C | 36% | 1018.2 hPa | 0 mm | - | - | - |
| 1778096674 | 13.89° C | 38% | 1018.3 hPa | 0 mm | - | - | - |
| 1778096373 | 13.89° C | 37% | 1018.2 hPa | 0 mm | - | - | - |
| 1778096071 | 13.89° C | 41% | 1018.2 hPa | 0 mm | - | - | - |
| 1778095770 | 13.89° C | 41% | 1018.2 hPa | 0 mm | - | - | - |
| 1778095470 | 13.33° C | 41% | 1018.2 hPa | 0 mm | - | - | - |
| 1778095169 | 13.33° C | 37% | 1018.3 hPa | 0 mm | - | - | - |
| 1778094868 | 13.33° C | 36% | 1018.3 hPa | 0 mm | - | - | - |
| 1778094566 | 13.33° C | 42% | 1018.3 hPa | 0 mm | - | - | - |
| 1778094266 | 13.33° C | 40% | 1018.3 hPa | 0 mm | - | - | - |
| 1778093965 | 13.33° C | 38% | 1018.4 hPa | 0 mm | - | - | - |
| 1778093664 | 13.33° C | 41% | 1018.5 hPa | 0 mm | - | - | - |
| 1778093363 | 12.78° C | 39% | 1018.4 hPa | 0 mm | - | - | - |
| 1778093062 | 12.78° C | 39% | 1018.5 hPa | 0 mm | - | - | - |
| 1778092761 | 13.33° C | 40% | 1018.5 hPa | 0 mm | - | - | - |
| 1778092459 | 12.78° C | 41% | 1018.6 hPa | 0 mm | - | - | - |
| 1778092158 | 12.78° C | 43% | 1018.7 hPa | 0 mm | - | - | - |
* Rain latest hour (hover to see other rain measurements)
** Current wind speed in m/s (hover to see current wind gust speed)